RH
70 66 63 65 74 93 80 76 82 81 77 80 81 81 84 90 91 95 92 90 93 92 89 90 90 92 92 91 93 94 93 86 82 74 80 80 78 74 69 74 77 73 71
68 68 66 63 68 82 91 80 80 82 86 88 84 82 83 86 88 91 90 84 92 93 88 92 91 82 92 92 94 91 90 93 87 90 89 82 77 74 78 80 69 65 76
66 68 69 64 63 66 73 88 77 82 84 91 85 82 84 86 90 88 86 88 90 92 87 89 90 92 93 91 94 93 92 87 93 95 96 93 92 88 86 84 79 80 76
63 67 70 71 64 59 63 70 91 72 80 82 88 82 80 79 79 84 90 92 90 89 90 88 88 92 92 91 93 95 94 96 96 97 97 97 96 91 92 94 88 94 89
66 68 67 71 71 65 59 64 71 83 70 78 78 83 83 79 73 79 82 87 93 93 93 90 91 89 91 88 85 94 95 96 97 98 98 98 97 97 96 95 96 82 86
66 68 69 67 73 75 69 62 66 67 77 80 89 80 84 72 80 87 83 87 89 91 89 94 91 89 90 91 92 92 90 95 96 98 97 96 96 96 97 97 96 97 97
72 68 69 73 73 75 77 73 69 68 59 73 73 86 87 85 87 88 88 76 87 88 87 82 87 73 90 89 91 91 93 95 91 89 95 93 90 78 90 95 94 97 95
90 67 74 74 76 75 74 79 75 75 65 65 79 70 72 76 90 90 89 79 78 78 82 86 84 80 87 87 90 91 90 86 86 84 84 73 71 72 92 78 88 95 97
90 90 78 83 77 76 77 75 76 77 75 66 64 82 82 76 92 92 92 82 79 78 76 78 81 81 87 92 84 88 89 86 86 92 87 87 88 88 85 97 93 99 97
93 95 91 86 85 80 74 74 73 72 74 72 69 65 73 75 90 95 94 78 82 78 75 79 89 80 91 95 87 84 89 80 80 86 88 93 97 93 96 96 90 99 98
95 94 90 89 68 68 71 89 71 73 70 75 75 71 74 80 76 96 97 82 76 76 74 72 75 93 93 93 94 75 77 70 80 93 95 95 96 97 96 97 95 97 99
94 95 93 91 84 62 70 76 78 70 76 73 75 79 73 73 93 96 98 97 85 76 75 70 67 86 93 97 97 95 93 92 89 94 98 90 96 95 88 93 96 98 97
96 97 96 94 95 63 67 68 73 70 72 76 74 73 76 74 74 97 99 98 96 86 72 75 84 89 91 95 93 91 95 97 87 90 89 82 77 80 89 95 96 96 97
96 96 94 98 93 87 78 64 67 70 71 71 75 76 73 73 76 74 92 98 98 98 87 83 84 88 93 86 94 94 92 92 90 87 84 80 92 97 98 98 98 99 99
93 95 97 97 94 93 77 85 69 71 68 70 70 70 75 78 74 82 84 88 89 94 94 89 97 98 94 98 98 98 98 98 98 93 95 93 96 98 99 99 99 99 99
95 90 98 96 93 82 85 97 100 96 99 96 95 77 69 85 94 98 100 100 100 100 100 93 95 92 93 88 86 93 94 95 92 94 97 97 98 99 98 99 99 99 99
98 97 94 97 95 98 78 88 94 100 100 100 100 100 99 97 100 100 100 100 100 100 97 98 96 94 92 92 91 92 90 88 91 96 96 98 98 99 100 99 99 99 100
96 96 99 99 97 98 99 95 94 97 98 99 100 100 100 100 100 100 100 100 100 100 97 98 97 97 97 96 94 94 92 95 98 99 99 99 99 99 99 99 99 99 99
97 98 97 98 99 99 99 98 98 98 97 97 100 100 100 100 100 100 100 97 94 96 97 97 96 96 98 98 98 98 98 99 99 98 98 98 98 99 97 99 99 100 100
97 95 96 98 98 98 99 98 98 98 98 99 99 99 99 100 100 99 99 99 99 98 98 97 97 99 99 98 96 96 97 98 98 97 98 99 97 96 93 98 95 89 86
98 97 94 96 97 98 98 98 100 99 98 99 98 100 100 98 98 98 98 99 100 99 99 99 99 98 98 97 98 98 97 98 99 99 99 97 94 93 98 95 90 90 92
97 97 96 97 97 97 97 98 98 99 99 99 99 100 100 100 99 99 98 98 98 97 97 98 97 97 97 98 99 98 98 96 95 96 98 98 97 97 96 94 92 95 94
95 95 94 96 97 94 96 97 97 97 98 98 98 98 98 99 98 98 98 96 94 92 94 93 95 95 94 94 92 94 93 95 94 94 96 96 98 96 92 91 92 95 95
94 94 95 97 97 97 96 96 97 98 97 97 97 98 98 98 97 96 94 94 92 90 84 91 90 88 90 89 89 88 93 92 92 86 84 83 83 92 85 88 91 95 96
90 95 96 98 97 97 97 96 97 96 97 98 97 97 96 96 96 95 94 94 92 90 87 90 90 86 84 82 82 84 92 94 82 86 72 72 76 73 74 82 82 88 93
93 91 94 96 97 97 97 97 98 98 98 98 98 98 98 98 98 98 98 97 97 96 94 95 91 83 79 83 88 93 92 89 82 88 75 60 60 59 74 80 78 79 81
Wind_Speed
17 16 15 13 10 6 7 8 7 5 8 8 11 10 9 8 7 6 6 6 6 5 4 5 6 4 3 2 2 0 1 2 3 4 2 2 3 4 6 4 5 6 8
17 16 16 14 13 9 8 8 7 7 6 7 10 11 11 10 8 8 8 6 7 6 7 5 6 3 5 4 2 4 2 3 3 3 2 3 4 4 5 6 6 5 5
18 17 16 16 15 16 13 9 7 8 7 7 8 12 11 11 10 10 9 7 7 7 7 7 7 6 6 4 4 4 3 2 2 2 4 2 3 2 4 3 5 5 4
18 18 17 18 17 16 16 12 8 9 9 9 8 10 10 11 11 11 10 8 7 7 7 7 7 7 7 7 5 6 4 4 3 3 3 4 3 4 2 3 5 2 5
19 18 19 16 16 15 16 16 12 10 11 10 11 9 10 10 9 11 10 9 8 7 7 7 7 8 11 10 6 6 5 4 4 4 4 3 3 3 3 2 4 6 5
18 20 18 18 16 17 16 17 15 15 13 10 11 12 12 10 12 14 11 8 8 8 9 7 7 9 11 13 14 11 8 6 6 4 4 7 7 4 3 3 3 3 5
9 16 17 17 18 17 15 16 16 16 15 15 13 10 11 12 14 15 16 9 8 10 9 9 7 8 9 7 10 13 12 12 12 7 8 8 8 9 4 4 5 4 5
5 12 16 16 17 17 17 17 17 14 16 15 15 15 14 12 13 16 16 12 9 10 11 11 11 11 8 8 7 7 8 8 9 8 11 14 12 12 7 9 7 5 5
5 7 8 13 17 17 19 18 16 15 14 15 15 14 15 15 15 17 13 11 12 12 10 11 12 12 12 14 9 9 9 10 8 13 13 14 14 14 12 1 7 4 6
2 6 7 12 14 17 19 19 17 16 16 13 15 15 16 16 15 17 15 10 11 10 10 10 15 15 14 14 12 11 11 14 8 6 6 7 11 10 13 9 6 6 5
7 8 10 13 18 20 19 15 17 16 15 15 16 14 15 16 16 18 19 13 12 10 10 10 9 16 19 16 17 12 13 12 8 6 6 6 5 5 5 5 7 7 5
9 7 11 12 13 15 19 17 17 16 15 15 14 12 12 14 16 17 20 22 18 13 12 10 12 15 17 18 11 15 17 11 4 4 4 8 6 6 6 6 6 7 8
8 9 11 11 11 16 17 17 13 15 13 13 13 13 11 11 11 19 20 22 22 14 13 14 14 14 15 12 17 17 8 5 7 7 9 10 9 8 6 4 4 5 5
10 10 9 9 12 13 13 13 13 13 13 13 12 12 11 10 11 11 11 11 19 15 17 12 9 9 11 10 6 6 6 7 8 9 9 8 3 4 4 3 4 3 2
11 10 11 8 14 11 12 12 13 15 15 15 13 12 12 12 13 13 12 11 11 14 10 8 3 4 5 5 4 6 5 4 6 7 6 6 5 3 3 4 4 3 5
13 7 7 10 11 9 8 5 9 3 14 16 15 14 12 14 14 17 17 18 18 12 5 9 10 9 10 11 11 8 8 8 8 7 7 6 5 5 6 4 3 3 4
8 8 8 9 9 8 9 9 11 2 6 2 14 17 16 13 15 14 17 16 8 12 9 8 9 9 10 9 9 9 10 9 8 7 6 7 6 5 5 4 3 3 4
11 11 7 8 9 8 6 7 7 10 11 6 1 8 10 11 17 15 9 11 3 5 8 8 10 9 9 9 7 7 7 5 5 4 4 3 4 3 3 4 4 4 4
9 7 9 8 8 9 7 6 7 8 7 6 2 1 5 9 4 9 15 5 8 7 10 11 10 9 8 6 4 4 5 4 3 3 3 3 3 3 7 5 5 4 4
9 13 11 8 8 7 6 5 6 6 7 7 7 8 7 5 6 6 6 4 5 5 7 8 5 4 4 5 5 4 4 4 4 2 4 4 5 5 14 16 5 4 3
6 7 14 7 7 7 7 7 5 6 8 8 7 4 5 7 9 8 5 2 3 4 2 3 3 3 1 3 5 4 4 6 7 6 6 3 6 7 11 7 4 4 3
5 5 6 7 6 8 9 8 8 5 2 7 6 4 6 2 5 7 8 7 7 6 6 7 8 7 6 6 6 5 3 4 3 4 5 4 3 4 4 4 4 2 2
5 6 7 6 6 9 9 9 9 10 8 9 7 8 7 6 9 9 10 10 8 8 8 9 9 7 6 6 6 5 4 1 1 3 7 5 1 2 1 2 1 1 1
6 9 8 7 7 7 8 10 10 12 10 9 11 11 10 10 10 11 10 9 12 9 10 11 10 11 7 7 7 7 6 5 4 2 5 3 4 3 3 2 0 3 4
8 8 6 6 6 7 9 9 12 10 10 10 9 11 12 10 11 11 10 11 10 11 12 12 10 13 14 13 12 14 13 15 7 3 1 5 6 5 3 2 0 1 1
10 7 6 6 7 8 10 7 11 9 8 11 10 10 11 12 8 10 9 10 11 9 8 11 12 18 15 13 14 15 12 13 12 8 5 7 8 6 5 5 6 3 4
Wind_Direction
188 194 198 207 221 206 204 211 211 209 200 194 195 187 187 191 196 196 202 203 207 219 223 216 244 238 256 276 281 49 126 152 190 297 261 286 299 294 301 275 267 262 264
189 192 199 200 206 216 215 213 207 202 210 195 191 188 188 194 192 204 205 201 205 216 230 219 244 247 259 223 252 275 241 186 163 273 271 286 250 291 293 309 298 278 273
189 193 195 201 202 212 221 221 213 203 201 203 192 190 190 195 196 208 211 207 204 211 216 214 229 235 257 240 215 241 256 260 205 203 276 274 271 304 318 298 286 310 310
192 196 199 198 204 210 214 215 211 222 204 207 199 202 200 198 198 200 202 209 211 210 214 212 218 210 221 234 233 226 232 243 240 239 261 266 256 285 256 274 312 315 297
193 196 204 202 199 203 211 216 211 212 224 207 206 206 201 202 205 205 203 208 211 222 217 222 222 219 212 216 215 231 219 230 245 259 271 275 274 292 266 261 271 295 284
196 203 201 202 200 201 204 208 213 215 217 211 209 205 203 207 204 194 193 203 213 215 230 227 229 225 231 227 225 220 203 218 235 224 246 257 266 245 246 265 275 307 306
220 208 206 202 203 203 203 206 210 213 218 222 218 205 210 210 202 198 199 210 211 221 224 232 233 238 221 229 234 234 237 237 235 220 239 246 267 265 256 269 259 248 258
231 211 207 206 205 202 207 207 208 205 211 215 222 220 219 218 201 204 207 217 218 223 222 222 226 236 224 213 230 243 241 237 228 225 234 256 251 265 228 265 272 271 276
47 11 332 219 211 203 206 211 209 203 208 214 215 211 216 225 202 206 198 214 225 229 223 226 223 232 231 213 224 242 253 258 244 236 233 238 248 249 252 13 278 285 293
98 11 324 303 230 212 209 208 209 208 209 211 217 216 216 221 208 207 198 217 226 231 232 232 225 227 222 211 216 230 244 253 249 253 251 251 244 251 250 216 252 245 259
316 27 310 294 249 215 213 207 208 206 209 211 218 215 213 212 218 203 198 213 223 225 231 232 231 221 231 220 212 231 233 247 243 229 238 246 245 236 244 212 204 210 216
350 309 283 286 266 217 209 208 208 207 209 213 212 215 217 217 213 205 203 206 218 225 229 231 238 217 218 221 211 230 241 247 259 243 240 255 252 243 242 234 220 212 222
316 272 284 292 276 226 209 210 206 206 206 211 211 215 214 215 220 214 203 207 218 221 230 228 222 217 221 223 225 232 227 216 235 239 243 249 242 236 240 247 247 220 230
292 292 301 293 281 232 213 206 205 205 207 212 211 214 215 213 216 217 212 212 225 216 236 235 229 214 204 218 225 220 211 214 216 228 239 244 235 208 220 212 220 162 234
318 322 319 303 292 228 218 204 208 211 205 205 208 208 206 214 218 210 206 205 213 216 215 231 196 202 214 217 221 221 206 194 206 223 230 237 236 219 229 197 200 189 201
316 318 305 303 308 269 204 199 39 4 222 211 206 205 215 219 200 202 209 203 201 166 187 215 221 220 223 228 232 232 225 216 221 215 213 216 225 220 231 205 206 211 226
287 290 301 298 301 299 226 192 205 53 71 175 220 212 208 195 207 212 212 209 194 145 211 206 215 215 221 224 226 226 235 227 217 216 210 213 219 228 214 227 185 230 252
304 294 302 305 290 288 277 227 203 198 197 200 75 224 223 230 207 211 151 120 136 221 211 204 212 210 211 213 217 225 233 222 195 197 205 219 242 230 218 224 212 217 235
304 315 320 309 289 282 273 242 207 190 200 190 137 129 116 130 134 134 161 202 206 197 202 211 210 202 202 183 181 223 221 180 189 183 132 69 24 328 307 266 267 255 250
314 332 330 323 320 322 316 289 222 198 195 193 197 205 150 147 169 180 197 189 183 188 194 205 204 186 147 149 164 175 130 125 143 161 171 157 111 9 334 276 260 232 217
315 338 341 328 327 341 341 325 289 205 190 186 198 160 172 197 179 178 139 111 75 68 59 81 91 97 177 191 211 197 205 180 160 154 146 235 211 180 175 238 220 204 177
321 358 349 336 349 4 352 344 336 350 126 155 126 121 214 217 111 84 69 57 36 45 59 81 73 49 31 15 352 16 34 106 160 111 80 48 36 120 157 176 163 132 133
338 29 5 1 352 31 13 7 12 10 343 87 90 96 69 67 78 84 91 76 59 52 44 54 65 56 46 49 37 21 33 86 151 66 72 91 62 40 192 94 87 243 214
7 36 9 3 8 32 52 26 17 21 6 40 68 71 72 67 61 62 61 63 81 48 54 61 43 37 19 29 45 25 356 341 332 71 121 120 107 73 37 51 35 240 246
19 32 22 12 6 39 47 43 42 18 28 19 61 71 72 64 71 61 59 69 57 71 61 61 55 41 33 25 35 31 354 351 347 305 98 125 120 110 113 135 112 312 311
30 15 32 29 31 37 57 40 56 40 40 54 11 62 62 71 51 75 66 63 73 58 73 72 63 57 33 30 22 16 4 2 6 360 36 56 67 50 47 56 61 67 52